Flag for Russia Weather past 2 weeks in Astrakhan, Russia

Now
59 °F

Clear.


Feels Like: 60 °F
Forecast: 57 / 81 °F
Wind: 3 mph from Northwest

Location: Astrakhan

Current Time: Sep 2, 2015 at 2:04:40 AM

Latest Report: Sep 2, 2015 at 12:30 AM


Visibility: 10 mi

Pressure: 29.95 "Hg

Humidity: 59%

Dew point: 45 °F

Location of AstrakhanLocation

Historic Weather in Astrakhan — Graph

°F

Astrakhan temperature yesterday

Maximum temperature yesterday: 79 °F (at 1:30 PM)
Minimum temperature yesterday: 57 °F (at 11:30 PM)
Average temperature yesterday: 69 °F

Past Weeks' High & Low Weather Summary

 TemperatureHumidityPressure
High93 °F (Aug 30, 1:00 PM)88% (Aug 28, 4:30 AM)30.18 "Hg (Aug 28, 4:30 AM)
Low52 °F (Aug 26, 3:30 AM)13% (Aug 24, 9:00 PM)29.80 "Hg (Aug 24, 12:30 PM)
Average71 °F43%30.01 "Hg
* Reported Midnight between Aug 17 and Aug 18 — Sep 2 12:30 AM, Astrakhan, Weather by CustomWeather, © 2015

Note: Actual official high and low records may vary slightly from our data, if they occured in-between our weather recording intervals... More about our weather records

Advertising

Astrakhan weather history for previous 24 hours

 ConditionsComfort  
Time TempWeatherWind HumidityBarometerVisibility
12:30 AM
Wed, Sep 2
59 °FClear.3 mph59%29.95 "Hg10 mi
12:00 AM59 °FClear.1 mph59%29.95 "Hg10 mi
11:30 PM
Tue, Sep 1
57 °FClear.6 mph63%29.95 "Hg10 mi
11:00 PM61 °FClear.1 mph52%29.95 "Hg10 mi
10:30 PM59 °FClear.3 mph55%29.95 "Hg10 mi
10:00 PM61 °FClear.3 mph48%29.95 "Hg10 mi
9:30 PM61 °FClear.1 mph48%29.95 "Hg10 mi
9:00 PM61 °FClear.3 mph48%29.95 "Hg10 mi
8:30 PM64 °FClear.3 mph40%29.95 "Hg10 mi
8:00 PM68 °FClear.3 mph35%29.95 "Hg10 mi
7:30 PM70 °FClear.3 mph33%29.95 "Hg10 mi
7:00 PM72 °FSunny.1 mph31%29.95 "Hg10 mi
6:30 PM73 °FSunny.6 mph29%29.92 "Hg10 mi
6:00 PM73 °FSunny.6 mph27%29.92 "Hg10 mi
5:30 PM75 °FPassing clouds.6 mph25%29.92 "HgN/A
5:00 PM77 °FSunny.13 mph24%29.92 "Hg10 mi
4:30 PM77 °FSunny.13 mph22%29.92 "Hg10 mi
4:00 PM79 °FSunny.15 mph23%29.92 "Hg10 mi
3:30 PM79 °FPassing clouds.15 mph21%29.92 "HgN/A
3:00 PM77 °FPassing clouds.17 mph24%29.92 "HgN/A
2:30 PM79 °FSunny.17 mph23%29.92 "Hg10 mi
2:00 PM77 °FPassing clouds.15 mph24%29.92 "HgN/A
1:30 PM79 °FPassing clouds.17 mph23%29.92 "HgN/A
1:00 PM77 °FSunny.17 mph24%29.92 "Hg10 mi
12:30 PM77 °FSunny.15 mph24%29.92 "Hg10 mi
12:00 PM77 °FSunny.15 mph24%29.92 "Hg10 mi
11:30 AM77 °FPassing clouds.17 mph26%29.95 "HgN/A
11:00 AM77 °FPassing clouds.13 mph26%29.95 "HgN/A
10:30 AM77 °FSunny.13 mph26%29.95 "Hg10 mi
10:00 AM75 °FPassing clouds.15 mph27%29.95 "HgN/A
9:30 AM75 °FPassing clouds.13 mph29%29.95 "HgN/A
9:00 AM73 °FSunny.10 mph31%29.95 "Hg10 mi
8:30 AM73 °FPassing clouds.8 mph31%29.95 "HgN/A
8:00 AM70 °FSunny.10 mph33%29.95 "Hg10 mi
7:30 AM66 °FSunny.8 mph37%29.95 "Hg10 mi
6:30 AM63 °FPassing clouds.6 mph42%29.92 "HgN/A
6:00 AM61 °FPassing clouds.3 mph42%29.92 "HgN/A
5:30 AM59 °FClear.6 mph51%29.92 "Hg10 mi
5:00 AM59 °FClear.6 mph51%29.92 "Hg10 mi
4:30 AM59 °FClear.6 mph48%29.92 "Hg10 mi
4:00 AM61 °FClear.6 mph48%29.92 "Hg10 mi
3:30 AM59 °FClear.6 mph51%29.89 "Hg10 mi
3:00 AM61 °FClear.3 mph52%29.92 "Hg5 mi
2:30 AM61 °FClear.3 mph52%29.92 "Hg4 mi
2:00 AM63 °FClear.3 mph45%29.92 "Hg10 mi
Weather by CustomWeather, © 2015

See weather overviewHow to use our weather pages